Wind_Speed
12 13 13 12 12 11 10 9 10 10 10 11 11 12 11 11 10 10 9 9 9 9 8 7 6 6 6 6 6 6 6 6 6 7 7 7 7 7 7 7 8 8 8 8 8 8 9 9 9
11 11 11 11 10 10 9 9 9 9 10 10 10 10 10 10 10 9 9 8 9 8 7 7 7 7 7 7 7 6 6 6 5 5 6 6 6 6 6 7 7 7 6 6 7 7 8 8 8
8 8 9 10 10 9 8 9 9 8 9 9 8 8 8 9 9 8 8 8 7 7 6 6 6 6 6 6 6 6 5 5 5 4 4 4 4 5 5 6 6 6 6 6 6 7 7 7 7
6 6 6 7 8 8 8 8 8 8 8 7 7 6 7 7 6 6 6 6 6 6 5 5 5 5 5 5 5 5 4 4 3 3 3 3 3 3 4 4 5 5 5 6 6 6 7 7 7
5 4 4 5 6 6 6 6 7 7 7 7 6 5 5 5 5 4 4 4 4 4 4 4 4 4 4 4 3 3 3 2 2 2 2 2 3 3 3 4 4 5 6 6 6 7 7 7 8
6 4 2 2 3 4 5 6 6 7 6 6 5 4 3 3 3 2 2 2 2 2 2 2 2 2 2 2 2 1 1 0 1 2 2 3 3 4 4 5 6 6 7 7 7 8 8 8 9
8 6 4 2 0 2 4 6 6 7 6 5 4 3 2 2 2 2 2 2 2 2 2 2 1 1 1 1 1 1 2 2 3 4 4 5 5 6 7 7 8 8 8 9 9 9 10 10 10
10 8 6 5 4 3 4 5 6 7 7 7 6 5 4 4 4 4 4 4 4 4 4 3 3 3 3 3 3 4 4 5 5 6 6 7 7 8 9 9 10 10 10 11 11 11 11 12 12
12 10 9 8 7 5 5 6 7 8 8 8 8 7 7 7 7 7 6 6 6 6 6 6 6 6 6 6 6 6 7 7 7 8 8 8 9 10 11 12 12 12 12 12 12 12 12 12 12
14 12 11 10 9 8 8 8 8 8 9 10 10 9 9 9 9 9 9 9 8 8 8 8 8 8 8 8 9 9 9 9 9 10 10 10 11 12 13 14 14 14 14 14 13 13 13 13 14
16 14 13 12 11 11 10 10 10 10 11 11 11 12 12 12 12 12 11 11 11 11 11 10 10 10 10 10 11 11 11 11 11 11 12 12 13 14 15 16 16 16 16 16 16 15 16 16 16
18 16 15 14 13 12 11 11 12 13 13 13 13 13 14 14 14 14 14 14 14 14 14 13 13 13 12 12 13 13 13 13 13 13 13 14 15 15 16 17 18 18 18 18 18 18 18 18 18
18 17 16 15 14 13 13 12 13 14 15 15 15 15 15 16 16 17 17 16 16 16 16 16 16 15 15 15 15 15 15 15 15 15 16 16 17 17 18 19 19 20 20 20 21 20 20 20 20
19 19 18 17 16 15 14 13 14 15 16 16 17 17 17 18 18 19 19 19 19 19 19 19 18 18 18 17 17 17 18 18 17 17 18 18 19 19 20 20 21 21 22 22 23 22 22 23 23
21 20 19 19 19 17 16 15 17 17 16 17 18 18 19 19 20 21 21 22 22 22 21 21 21 20 20 20 20 20 20 20 20 20 20 20 21 21 22 22 23 23 23 24 24 24 25 25 26
22 22 21 22 21 19 19 17 20 18 18 18 19 20 21 22 22 23 24 24 24 24 24 24 23 23 23 22 22 22 22 22 23 23 23 23 23 24 24 24 25 25 25 26 27 27 28 28 28
25 25 24 24 23 23 23 20 24 22 21 21 22 23 24 24 25 25 26 26 26 26 27 27 26 26 26 25 25 25 25 25 25 26 26 26 26 26 26 27 27 28 28 29 29 30 30 30 31
29 28 26 26 27 28 27 25 26 26 24 23 24 25 26 26 27 28 27 27 28 28 29 29 29 29 29 28 28 28 28 28 28 28 29 29 29 29 29 29 30 31 31 31 32 33 33 33 34
33 31 30 29 32 33 32 30 28 30 27 26 27 27 28 28 30 30 30 30 30 30 31 31 31 31 31 31 31 31 31 31 31 31 31 32 32 32 32 33 33 33 34 34 35 35 35 36 37
36 35 34 34 36 38 38 35 31 30 30 29 29 29 29 30 32 32 33 32 32 32 32 32 32 33 33 33 34 34 34 34 34 34 34 35 35 35 35 35 36 36 36 37 37 38 38 39 40
39 38 38 39 40 41 43 42 35 32 32 31 30 30 32 33 34 35 36 35 34 34 34 34 34 34 35 35 36 36 37 37 37 37 38 38 37 37 38 38 38 39 39 39 40 40 41 42 43
42 41 42 43 43 43 46 51 41 35 34 32 31 33 34 36 37 37 37 37 37 37 37 37 36 36 36 37 38 38 39 39 40 40 40 40 40 40 40 40 40 41 41 42 42 43 44 45 46
46 45 45 46 46 48 49 54 51 41 36 33 33 34 36 38 40 40 39 39 39 40 40 39 38 38 38 39 40 41 41 42 43 43 43 43 43 42 42 42 42 43 43 44 45 45 47 48 49
48 48 48 48 49 54 52 55 58 47 42 38 35 35 36 39 41 41 40 41 41 42 42 42 41 41 41 42 42 42 43 44 45 45 45 45 45 44 44 44 44 45 46 46 47 48 49 50 52
49 49 49 51 53 56 56 60 60 52 48 43 39 38 38 39 39 40 41 41 42 43 44 44 43 43 43 43 43 43 44 45 46 46 46 46 45 45 45 46 46 47 48 48 49 51 52 53 55
51 51 53 55 57 58 61 65 61 56 51 47 45 42 39 38 38 39 40 41 42 43 44 44 44 44 43 43 44 44 45 46 47 47 47 47 47 47 47 47 48 49 50 51 52 54 55 56 57
57 57 55 56 59 63 66 67 63 58 55 53 50 47 42 39 38 39 41 42 42 43 44 44 44 44 44 44 44 45 45 46 47 47 48 47 47 47 48 49 50 51 52 53 55 56 57 58 60
61 60 58 59 61 65 69 69 65 62 60 57 54 48 43 39 38 40 42 43 44 44 45 45 45 45 45 45 45 45 45 46 46 47 47 47 47 48 49 51 52 53 55 56 57 58 60 61 63
64 64 64 66 66 68 71 69 64 63 61 59 55 51 46 43 42 42 43 43 44 45 46 45 45 45 46 46 46 46 46 46 46 46 47 48 49 50 51 53 54 56 57 58 60 61 63 64 65
71 71 70 71 72 72 73 68 62 63 63 61 58 54 50 47 46 45 45 45 45 46 46 46 46 46 46 46 46 46 47 47 47 47 48 50 51 52 54 55 57 58 60 61 62 64 65 66 67
Wind_Direction
84 77 71 67 64 61 63 63 67 73 75 73 71 69 68 71 72 72 70 68 68 69 72 80 87 92 101 114 129 142 150 158 171 179 182 188 195 201 208 218 225 230 235 244 254 264 270 275 280
89 81 73 67 63 61 60 57 59 66 73 73 71 70 70 70 68 67 67 66 66 65 65 70 76 82 89 99 110 122 133 142 157 173 182 192 201 209 215 221 227 234 241 248 256 264 271 278 284
98 87 78 69 63 57 53 50 52 58 66 70 69 69 69 69 67 64 64 65 66 66 65 68 72 78 83 88 95 106 116 124 137 150 163 180 194 204 214 222 229 235 242 248 256 264 272 279 284
116 100 86 74 64 55 48 42 43 47 55 63 65 63 63 64 65 63 60 61 63 64 64 67 70 75 80 85 90 96 106 116 129 143 160 177 190 202 212 222 230 236 242 247 254 261 268 273 279
154 133 105 80 67 52 42 33 30 35 42 49 53 52 52 55 59 58 53 52 57 58 60 62 67 71 74 77 82 91 101 112 133 156 180 199 211 219 226 234 241 246 250 253 257 262 267 272 277
185 180 163 94 65 42 25 19 17 20 26 34 37 36 32 34 42 40 32 28 35 36 36 40 47 53 57 64 71 82 93 195 231 233 235 243 249 251 252 254 255 256 258 260 264 267 272 276 280
205 203 209 229 329 8 357 357 360 1 5 9 7 358 341 339 342 340 330 323 321 321 322 329 334 336 337 334 319 298 280 271 268 265 265 265 266 267 267 266 266 267 268 269 271 274 277 280 283
214 215 223 240 261 293 318 328 336 340 342 343 341 324 307 300 296 295 297 297 295 294 294 294 292 291 288 286 282 278 275 273 273 273 274 275 276 276 275 273 272 272 273 275 276 278 280 283 285
219 221 228 244 261 276 290 303 313 322 324 325 325 317 305 293 287 284 283 283 284 286 287 287 287 286 284 280 277 275 274 274 274 274 275 276 277 279 280 279 278 277 277 278 280 281 282 284 286
222 225 231 245 260 272 283 293 302 310 313 314 314 312 304 295 287 282 280 278 278 280 281 281 281 282 282 280 277 275 274 272 272 272 273 274 275 278 280 281 281 281 282 282 282 283 283 285 286
226 230 236 246 257 269 281 290 298 302 303 305 306 305 301 295 289 283 280 278 277 278 278 279 280 279 279 278 277 276 274 272 271 272 273 273 274 275 277 280 282 283 283 283 283 284 284 286 287
229 235 242 249 257 267 277 287 295 298 299 302 303 301 298 295 289 284 280 278 277 277 278 278 278 278 278 277 276 276 275 273 272 273 274 274 274 274 274 276 279 281 282 282 283 284 284 285 286
232 239 246 252 258 266 274 284 291 294 299 304 304 301 298 294 289 284 281 279 277 277 278 277 276 276 276 276 275 275 275 274 273 273 274 275 275 275 274 275 276 277 279 280 281 283 284 285 286
235 242 248 254 259 265 272 281 286 290 300 304 305 304 301 296 291 285 282 280 278 277 277 277 275 275 275 274 274 273 274 274 274 274 275 276 276 276 276 275 275 276 277 279 280 282 283 284 286
237 242 249 256 261 267 272 279 282 289 298 302 305 306 304 299 293 287 283 280 277 276 276 276 275 274 273 273 273 273 274 275 275 276 276 276 276 275 275 275 275 275 276 277 279 280 282 284 285
239 244 250 257 263 268 272 278 282 288 295 301 305 306 305 301 295 288 284 280 278 276 276 275 274 273 272 272 272 273 274 275 276 276 277 277 277 276 275 275 275 275 276 277 278 279 281 283 284
242 245 250 258 264 268 270 275 279 285 292 300 304 306 305 302 295 289 285 281 278 276 275 274 273 272 271 271 271 272 273 274 275 276 276 277 276 276 275 275 275 275 276 277 278 279 281 282 284
244 248 252 259 263 266 269 272 277 282 289 297 301 303 303 300 294 289 285 280 276 274 273 273 272 272 271 271 272 272 273 274 275 276 276 276 276 276 275 274 275 275 276 277 278 280 281 282 284
247 251 255 259 263 266 268 269 274 280 288 295 298 301 301 297 293 289 284 280 277 275 273 273 272 272 272 271 272 272 273 274 275 276 276 276 276 275 275 274 275 275 276 277 278 280 281 283 285
251 254 257 260 263 266 268 269 271 278 286 292 297 298 297 295 291 287 283 281 278 276 275 274 273 272 272 272 272 273 273 274 274 275 276 276 275 275 274 274 275 275 276 277 278 280 282 284 286
253 257 259 262 264 268 271 269 270 275 282 289 293 293 293 292 288 284 281 279 277 275 274 274 274 274 274 274 274 273 274 274 274 274 274 275 275 275 274 274 274 275 276 277 279 281 283 285 287
254 257 260 263 266 269 271 273 269 273 278 286 289 289 290 289 285 281 278 276 275 274 274 275 276 276 276 276 275 274 274 273 273 273 274 275 275 274 274 273 273 274 276 277 279 281 283 285 287
254 257 261 264 267 269 270 274 275 274 277 282 285 287 289 286 281 278 275 274 274 275 275 276 276 277 277 276 275 274 274 273 273 273 273 273 273 273 272 272 273 274 275 277 279 281 283 285 287
257 260 262 264 267 268 271 274 276 279 282 283 284 287 286 282 278 275 274 273 274 275 276 277 277 277 277 276 275 275 274 273 272 272 272 272 272 272 271 271 272 273 275 277 279 281 283 286 288
256 260 263 264 265 268 272 273 275 280 282 285 287 288 284 279 276 273 272 272 273 275 276 278 278 278 278 276 275 274 273 272 272 271 271 271 271 270 270 270 271 273 275 277 279 282 284 286 289
257 258 261 264 267 269 270 272 276 279 283 285 286 286 283 278 274 272 272 272 273 275 276 278 278 277 277 276 274 273 272 271 271 271 270 269 269 269 269 270 271 273 275 277 280 282 284 287 289
257 258 261 263 266 269 271 274 277 280 283 284 286 287 286 280 274 271 272 273 274 275 276 277 278 278 277 276 275 273 271 270 269 269 268 268 268 268 269 269 271 274 276 278 280 283 285 287 289
257 259 260 261 265 268 271 273 276 280 282 284 286 286 286 282 276 272 272 273 274 275 276 276 276 276 276 275 274 272 271 269 268 268 268 267 267 268 269 271 273 275 277 279 281 284 286 288 290
257 258 261 263 264 266 269 272 276 279 281 283 284 285 286 283 278 274 273 273 274 275 275 276 276 276 275 275 273 271 270 269 268 267 267 267 267 269 270 272 274 276 278 280 283 285 287 289 291
258 259 259 261 264 266 269 270 273 277 279 280 282 284 284 281 278 277 276 276 275 275 275 275 275 275 275 274 273 272 270 269 269 268 268 268 268 270 272 274 276 278 280 282 284 286 288 289 291
Height
5865 5866 5867 5868 5869 5869 5869 5869 5869 5868 5868 5867 5867 5867 5867 5867 5868 5870 5868 5866 5866 5866 5866 5866 5866 5865 5865 5866 5866 5867 5867 5868 5869 5870 5871 5872 5873 5873 5874 5875 5876 5876 5877 5877 5877 5877 5877 5877 5877
5867 5868 5869 5870 5870 5870 5870 5870 5870 5870 5869 5869 5868 5868 5868 5868 5869 5869 5868 5868 5868 5868 5868 5868 5867 5867 5867 5867 5867 5868 5868 5869 5870 5870 5871 5872 5872 5873 5874 5875 5875 5876 5876 5876 5876 5876 5876 5876 5876
5868 5869 5871 5871 5871 5872 5872 5871 5871 5871 5870 5870 5869 5869 5870 5870 5870 5870 5870 5870 5869 5869 5869 5869 5869 5869 5869 5869 5869 5869 5869 5870 5870 5871 5871 5872 5873 5873 5874 5874 5875 5875 5876 5876 5876 5876 5876 5876 5875
5870 5871 5872 5872 5872 5873 5873 5872 5872 5871 5871 5870 5870 5870 5870 5871 5871 5871 5871 5871 5871 5871 5871 5870 5870 5870 5870 5870 5870 5870 5870 5871 5871 5872 5872 5872 5873 5873 5873 5874 5874 5874 5875 5875 5875 5875 5875 5875 5874
5870 5871 5872 5872 5873 5873 5873 5873 5873 5872 5872 5871 5871 5871 5871 5871 5871 5871 5872 5872 5872 5872 5872 5871 5871 5871 5871 5871 5871 5871 5871 5871 5872 5872 5872 5873 5873 5873 5873 5873 5874 5874 5874 5874 5874 5874 5874 5874 5873
5870 5871 5872 5872 5873 5873 5874 5874 5873 5873 5872 5872 5871 5871 5871 5871 5871 5872 5872 5872 5872 5872 5872 5872 5872 5872 5872 5871 5871 5872 5872 5872 5872 5872 5872 5872 5872 5872 5873 5873 5873 5873 5873 5873 5873 5873 5873 5872 5872
5870 5871 5871 5872 5873 5873 5874 5873 5873 5873 5872 5872 5872 5871 5871 5871 5871 5871 5872 5872 5872 5872 5872 5872 5872 5872 5872 5872 5871 5871 5871 5872 5872 5872 5872 5872 5872 5872 5871 5871 5871 5871 5871 5871 5871 5871 5871 5871 5870
5868 5870 5870 5871 5872 5873 5873 5873 5872 5872 5872 5871 5871 5871 5871 5871 5871 5871 5871 5871 5871 5871 5871 5871 5871 5871 5871 5871 5871 5871 5871 5871 5871 5871 5871 5871 5871 5870 5870 5870 5870 5870 5870 5870 5870 5870 5869 5869 5868
5866 5869 5869 5870 5871 5872 5872 5872 5872 5871 5871 5870 5870 5870 5870 5870 5869 5870 5870 5870 5870 5870 5870 5870 5870 5870 5870 5870 5869 5869 5869 5869 5869 5869 5869 5869 5869 5869 5869 5868 5868 5868 5868 5868 5868 5867 5867 5867 5866
5864 5866 5867 5868 5869 5870 5870 5871 5871 5870 5870 5869 5869 5869 5868 5868 5868 5868 5868 5868 5869 5869 5869 5869 5868 5868 5868 5868 5868 5868 5868 5868 5868 5868 5868 5868 5868 5867 5867 5866 5866 5866 5866 5866 5865 5865 5865 5864 5864
5862 5864 5865 5866 5867 5867 5868 5868 5868 5868 5868 5868 5868 5867 5867 5866 5866 5866 5866 5866 5866 5866 5866 5866 5866 5866 5866 5866 5865 5865 5865 5865 5865 5865 5865 5865 5865 5865 5865 5864 5863 5863 5863 5863 5862 5862 5862 5861 5861
5859 5861 5862 5863 5864 5865 5865 5866 5866 5866 5866 5866 5866 5865 5865 5864 5864 5864 5864 5864 5864 5864 5864 5864 5864 5864 5863 5863 5863 5863 5862 5863 5863 5863 5863 5863 5863 5862 5862 5861 5860 5860 5860 5859 5859 5859 5858 5858 5857
5856 5858 5859 5860 5861 5862 5863 5863 5863 5863 5863 5863 5863 5863 5862 5862 5861 5861 5861 5860 5861 5860 5861 5861 5860 5860 5860 5860 5860 5859 5859 5859 5859 5859 5859 5859 5859 5859 5858 5858 5857 5857 5856 5856 5855 5855 5854 5854 5853
5853 5854 5856 5857 5858 5859 5860 5861 5861 5860 5860 5860 5860 5859 5859 5859 5858 5858 5857 5857 5857 5857 5857 5857 5857 5857 5856 5856 5856 5856 5855 5855 5855 5855 5855 5855 5855 5854 5854 5853 5853 5852 5852 5851 5851 5850 5850 5849 5848
5849 5851 5852 5853 5854 5856 5857 5858 5857 5857 5857 5857 5856 5856 5855 5855 5854 5854 5853 5853 5853 5852 5852 5852 5852 5852 5852 5852 5851 5851 5851 5851 5851 5850 5850 5850 5850 5849 5849 5849 5848 5848 5847 5846 5846 5845 5844 5843 5842
5845 5847 5848 5849 5850 5851 5853 5854 5852 5853 5853 5853 5853 5852 5851 5851 5850 5849 5848 5848 5847 5847 5847 5847 5847 5847 5847 5847 5847 5846 5846 5846 5845 5845 5845 5845 5844 5844 5843 5843 5842 5842 5841 5841 5840 5839 5838 5837 5836
5840 5842 5844 5845 5845 5846 5847 5849 5847 5848 5849 5849 5848 5848 5847 5846 5845 5843 5843 5842 5842 5842 5841 5841 5841 5842 5842 5841 5841 5841 5841 5840 5840 5839 5839 5839 5838 5838 5837 5837 5836 5836 5835 5834 5834 5833 5832 5831 5829
5835 5836 5839 5840 5839 5840 5841 5843 5843 5842 5844 5844 5844 5843 5842 5840 5839 5838 5837 5837 5836 5836 5836 5835 5835 5835 5835 5835 5835 5835 5835 5834 5834 5833 5833 5832 5832 5831 5830 5830 5829 5829 5828 5827 5826 5826 5824 5823 5822
5829 5831 5833 5833 5832 5833 5834 5837 5838 5837 5839 5839 5838 5837 5836 5835 5833 5831 5831 5830 5830 5830 5829 5829 5829 5829 5828 5828 5828 5828 5828 5828 5827 5827 5826 5825 5824 5824 5823 5822 5822 5821 5820 5820 5819 5818 5816 5815 5813
5822 5824 5825 5826 5825 5825 5826 5829 5833 5833 5833 5833 5833 5831 5830 5828 5826 5825 5823 5823 5823 5822 5822 5822 5822 5822 5821 5821 5821 5821 5820 5820 5820 5819 5818 5817 5817 5816 5815 5815 5814 5813 5812 5811 5810 5809 5808 5806 5804
5815 5816 5817 5817 5817 5817 5817 5819 5826 5828 5827 5828 5827 5825 5823 5821 5819 5817 5816 5815 5815 5815 5814 5814 5814 5814 5814 5813 5813 5813 5812 5812 5811 5811 5810 5809 5808 5808 5807 5806 5805 5804 5803 5802 5801 5800 5799 5796 5795
5807 5807 5807 5807 5808 5810 5809 5804 5817 5822 5822 5822 5821 5818 5816 5814 5812 5810 5808 5807 5807 5806 5806 5806 5806 5806 5806 5805 5805 5804 5804 5803 5803 5801 5801 5800 5799 5799 5798 5797 5796 5795 5794 5793 5792 5790 5789 5786 5784
5796 5797 5798 5799 5799 5800 5800 5795 5799 5811 5815 5816 5814 5811 5809 5806 5803 5801 5800 5799 5798 5798 5797 5797 5797 5797 5797 5796 5795 5795 5794 5794 5793 5792 5791 5791 5790 5789 5788 5787 5787 5785 5784 5783 5782 5780 5778 5776 5773
5786 5788 5788 5788 5788 5789 5792 5788 5783 5798 5803 5805 5806 5804 5801 5797 5794 5792 5791 5790 5790 5788 5788 5788 5788 5788 5787 5786 5785 5785 5784 5783 5782 5782 5781 5780 5780 5779 5778 5778 5777 5776 5774 5773 5771 5769 5767 5765 5762
5776 5778 5777 5777 5777 5779 5780 5776 5776 5787 5791 5794 5795 5794 5791 5788 5785 5783 5782 5781 5780 5779 5778 5778 5778 5778 5777 5776 5775 5775 5774 5773 5772 5771 5771 5770 5769 5769 5768 5767 5766 5765 5764 5762 5760 5758 5756 5753 5750
5764 5766 5766 5766 5766 5769 5767 5763 5769 5775 5779 5782 5783 5782 5781 5779 5776 5774 5773 5772 5771 5770 5769 5768 5767 5767 5766 5765 5764 5763 5762 5762 5761 5761 5760 5759 5759 5758 5757 5757 5756 5755 5753 5751 5749 5747 5744 5741 5738
5750 5753 5756 5754 5753 5753 5754 5755 5759 5764 5767 5769 5769 5770 5769 5768 5767 5765 5763 5762 5761 5760 5759 5758 5757 5756 5755 5754 5753 5752 5751 5750 5750 5749 5748 5748 5748 5747 5747 5746 5745 5743 5741 5740 5737 5734 5731 5728 5725
5737 5740 5741 5740 5741 5741 5742 5744 5747 5752 5753 5755 5757 5757 5757 5757 5756 5755 5754 5752 5751 5750 5748 5747 5746 5745 5744 5742 5742 5741 5740 5739 5738 5738 5738 5737 5737 5736 5735 5734 5733 5731 5729 5727 5724 5722 5718 5715 5711
5725 5727 5727 5726 5728 5729 5730 5735 5740 5740 5740 5741 5742 5744 5745 5745 5744 5743 5742 5741 5740 5738 5737 5736 5735 5734 5733 5731 5730 5729 5729 5728 5727 5727 5727 5726 5725 5725 5724 5722 5721 5719 5717 5714 5711 5708 5704 5701 5697
5707 5711 5712 5711 5714 5716 5719 5725 5732 5730 5727 5728 5729 5730 5731 5731 5731 5730 5730 5729 5728 5727 5726 5725 5724 5723 5721 5720 5719 5718 5717 5717 5716 5716 5716 5715 5714 5713 5711 5710 5708 5706 5703 5700 5697 5694 5690 5686 5682